Погода в Камышине

Погода в Камышине : погода сейчас, прогноз погоды и архив. Всё, что Вы хотите узнать о погоде в Камышине!

Хотите узнать прогноз погоды в Камышине? Тогда Вам сюда: Погода в Камышине

Поиск расширенной информации на нашем сайте:

Другие новости

Новости СМИ2

Главная страница сайта

Новости сайта

03.07.2017

Напоминаем, что на нашем специализированном сайте Метеоцентр.Азия вы можете получить высокодетализированные автоматические прогнозы погоды по пунктам России, СНГ и мира в авиационном формате (включающие направление и скорость ветра, видимость, явления погоды, количество и форму облачности, нижнюю и верхнюю границу облачности).

Рекомендуем: Навгеотех - геодезическое оборудование: GPS приемники, тахеометры, нивелиры, теодолиты, рулетки..

Погода в Камышине - сегодня

Время (UTC), дата Ветер
(°,м/с) 
Видим.   Явления Облачность Т
(°С)
Тd
(°С)
f(%) Тe
(°С)
Pmin
(гПа)
dP
(гПа)
Po
(мм)
O2
(г/м3)
Тmin Tmax R s Состояние
почвы
12 13.10.18 300 (СЗ) 10 км    8/1 1000 м верхняя 
[Cu hum|Ci fib]
+16.4 +4.2 44 +16  1026.4  -0.8  759  288           
18 13.10.18 320 (СЗ) 20000 м    6/0 средняя 
[Ac trans]
+10.5 +5.4 71 +12  1026.1  0.1  758  293           
21 13.10.18 290 (З) 20000 м    10/0 средняя 
[Ac und]
+8.1 +5.1 81 +7  1025.8  -0.4  758  296           
00 14.10.18 290 (З) 10 км    10/4 600 м средняя 
[Sc|Ac As]
+8.8 +5.5 80 +10  1024.8  -0.9  757  295           
06 14.10.18 290 (З) 10 км    9/4 600 м средняя 
[Sc|Ac trans]
+10.8 +6.2 73 +11  1024.4  0.2  757  292           
09 14.10.18 340 (С) 10 км    10/5 600 м средняя 
[Sc|Ac und]
+13.8 +5.1 56 +13  1024.5  0.3  757  290           
12 14.10.18 350 (С) 10 км    10/10 600 м 
[Sc]
+14.4 +4.9 53 +15  1023.9  -0.6  757  289           
18 14.10.18 тихо ()   10 км    10/10 600 м 
[Sc]
+10.9 +6.8 76 +11  1024.6  0.3  757  292           
21 14.10.18 230 (ЮЗ) 10 км    10/10 600 м 
[Sc]
+10.7 +6.5 75 +11  1024.2  -0.5  757  292           
00 15.10.18 280 (З) 10 км    9/9 600 м 
[Sc]
+11.1 +7.1 76 +12  1023.5  -0.7  756  292           
06 15.10.18 360 (С) 20000 м    10/10 600 м 
[Sc]
+11.5 +7.6 77 +12  1024.2  0.8  757  291  +10.5         
09 15.10.18 тихо ()   10 км    10/10 600 м 
[Sc]
+13.8 +8.3 69 +14  1024.6  0.5  757  289           
12 15.10.18 010 (С) 10 км    10/10 600 м 
[Sc]
+14.5 +8.7 68 +16  1024.8  0.3  758  288           
18 15.10.18 тихо ()   10 км    10/10 600 м 
[Sc]
+14.1 +9.4 73 +14  1026.2  0.7  759  289           
21 15.10.18 270 (З) 10 км    10/10 600 м 
[Sc]
+13 +9.4 79 +13  1026.3  759  290           
00 16.10.18 тихо ()   10 км    9/9 600 м 
[Sc]
+12.7 +9.4 80 +13  1026.6  0.3  759  290           
03 16.10.18 290 (З) 10 км    ясно 
+11.4 +9.3 87 +11  1026.8  0.2  759  292  +10.9         
06 16.10.18 280 (З) 4000 м  дымка  ясно 
+13.2 +8.9 75 +14  1027.7  0.9  760  290  +10.9         
09 16.10.18 280 (З) 10 км    1/0 верхняя 
[Ci fib]
+20.6 +7.4 42 +21  1026.9  -0.5  759  283           
12 16.10.18 300 (СЗ) 10 км    3/0 верхняя 
[Ci fib]
+21.6 +3.7 31 +22  1026.2  -0.6  759  283           
18 16.10.18 270 (З) 20000 м    4/0 верхняя 
[Ci fib]
+12.7 +5.1 60 +13  1026.7  0.2  759  291           
21 16.10.18 280 (З) 20000 м    3/0 верхняя 
[Ci fib]
+10.2 +5.1 71 +9  1026.3  -0.5  758  294           
00 17.10.18 270 (З) 20000 м    4/0 верхняя 
[Ci fib]
+9.7 +5.1 73 +9  1026.1  -0.3  758  294           
06 17.10.18 280 (З) 10 км    ясно 
+13.1 +5.9 62 +13  1025.6  758  291           
09 17.10.18 290 (З) 6-10{11}  10 км    ясно 
+19.5 +5.6 40 +20  1024.4  -0.9  757  284           
Время (UTC), дата Ветер
(°,м/с) 
Видим.   Явления Облачность Т
(°С)
Тd
(°С)
f(%) Тe
(°С)
Pmin
(гПа)
dP
(гПа)
Po
(мм)
O2
(г/м3)
Тmin Tmax R s Состояние
почвы

Для получения пояснительной информации подведите курсор к названию столбца.

ПОГОДА в Камышине - архив

Всё, что Вы хотите узнать о погоде в Камышине - удобно и подробно!

Выберите нужную дату (начиная с 1 января 2015* года) и нажмите кнопку "Найти".
Будут отображены архивные сводки погоды по пункту Камышин, начиная с указанной даты.


Отображать данные в формате CSV (для использования в таблицах Excel)


Внимание! Наш архив погоды предназначен исключительно для личного некоммерческого использования в познавательных целях. Если Вам необходимы официальные справки о состоянии погоды (для производственных, юридических, коммерческих и т.п. целей), обращайтесь в органы Росгидромета.

*Примечание: данная дата относится к архиву по метеостанциям СССР (Россия, СНГ, Балтия).
Архив по метеостанциям Зарубежной Европы и Азии (кроме Китая) хранится 10 дней, по другим регионам земного шара (Китай, Африка, Америка, Австралия, Океания) - 1 день.

Камышин - район местоположения метеостанции


Название, широта, долгота, высота метеостанции:
Камышин 50.1°ш. 45.4°д. 119 м над ур. моря [Российская Федерация]

Дополнительная информация

В oтличие oт бoльшинства пoгoдных сайтoв мы публикуем пoдрoбную метеoинфoрмацию в детальнoм прoфессиoнальнoм фoрмате.

Характеристики температуры и влажнoсти вoздуха измеряются на высoте 2 м в тени вдали oт зданий и деревьев.
Скoрoсть ветра измеряется на высoте 10 м (на урoвне рoста челoвека скoрoсть ветра ниже в 1.5-2 раза). Если метеoстанция нахoдится в гoрoде или в лесу, тo скoрoсть ветра занижена на 2-4 м/с пo сравнению с oткрытым местoм. Скoрoсть ветра над акватoриями крупных рек и oзёр, а также на вершинах хoлмoв на 2-5 м/с выше, чем в oбычных услoвиях.
Атмoсфернoе давление в разных тoчках местнoсти мoжет значительнo oтличаться oт давления на метеoстанции, в зависимoсти oт услoвий рельефа (при пoдъёме на 10 м давление пoнижается примернo на 1 мм рт.ст.).